Theta_e
299 297 295 298 299 298 296 295 295 295 296 296 298 298 299 296 295 295 294 294 293 292 293 294 294 296 298 299 301 301 301 303 306 308 306 303 300 298 297 297 298 300 301 302
295 294 300 297 296 295 294 294 294 295 295 295 296 295 299 295 296 296 294 293 293 292 292 292 293 294 295 296 298 299 300 301 302 303 302 300 296 294 294 294 293 294 295 296
296 297 297 295 293 292 293 293 294 293 293 294 293 294 296 293 292 293 293 294 293 293 292 292 292 292 294 293 294 295 297 298 299 299 297 296 295 294 292 291 291 291 292 292
295 296 293 293 293 294 291 295 293 292 291 290 293 289 294 294 291 290 291 291 292 292 292 291 291 291 291 291 292 293 294 294 295 296 296 296 293 289 289 289 290 290 291 290
295 292 293 293 294 294 294 294 293 292 291 290 290 289 294 289 289 290 291 291 292 293 292 290 289 289 288 290 291 291 291 291 292 292 293 291 289 289 289 289 289 289 289 289
296 296 296 296 293 294 293 291 290 290 290 285 291 289 292 290 292 293 291 291 291 291 290 289 289 288 287 288 289 289 289 288 289 290 290 290 289 288 288 288 288 288 288 288
293 293 294 294 292 292 293 292 286 284 284 284 286 286 293 295 292 293 291 291 291 290 289 288 287 287 286 287 287 287 287 286 288 288 288 288 288 289 288 288 288 287 287 286
290 288 292 294 296 292 290 293 288 281 281 285 284 284 290 291 291 291 294 292 291 290 289 288 288 287 286 286 286 286 286 285 287 287 287 288 288 288 287 287 287 286 286 285
289 289 292 291 292 296 289 287 292 283 277 284 287 288 292 288 288 289 290 290 289 289 289 288 288 287 287 287 287 287 286 286 286 287 287 287 287 287 286 286 286 286 286 284
294 289 289 290 293 292 292 294 286 287 281 281 284 285 290 287 289 288 287 288 289 290 289 289 288 287 287 287 287 286 286 286 286 286 287 286 286 286 286 286 285 285 285 284
293 291 287 290 288 289 288 287 288 289 287 285 283 286 293 293 292 289 290 290 291 290 289 289 289 288 287 287 287 286 286 286 286 286 286 286 286 286 286 285 285 284 284 283
295 290 286 287 290 290 292 291 290 287 282 283 284 288 290 291 292 292 291 291 292 291 291 290 290 289 286 285 286 286 286 286 286 286 286 286 285 285 285 285 284 284 282 282
294 289 286 286 287 288 287 288 290 291 288 285 285 288 290 289 290 291 291 291 291 291 291 290 290 289 288 286 285 285 286 286 286 285 285 285 285 285 285 284 283 282 281 280
297 291 289 287 290 290 285 288 288 289 286 287 286 290 288 289 290 290 290 291 291 290 291 290 290 290 290 288 286 285 285 286 285 285 285 285 285 285 284 283 282 280 279 278
294 288 290 292 291 290 289 289 288 287 289 287 291 288 290 292 291 292 293 292 291 290 290 291 291 291 290 288 287 286 285 285 285 284 284 285 285 285 283 281 279 278 277 276
291 288 290 287 289 287 286 289 289 288 289 290 291 289 295 294 294 291 291 290 289 290 291 291 291 291 289 288 287 286 285 284 285 284 284 285 284 282 280 278 277 276 275 275
289 289 285 284 289 284 280 285 288 289 291 291 287 291 290 289 290 291 292 291 291 291 291 290 290 290 289 288 288 286 285 285 284 283 283 283 282 280 279 277 275 275 274 274
286 286 285 282 281 276 285 284 290 288 288 288 286 287 289 290 290 291 293 292 291 290 289 289 289 289 289 288 287 287 286 284 282 283 282 281 280 279 277 275 274 274 273 272
287 286 278 278 279 284 278 280 284 285 286 287 288 286 284 283 285 286 287 288 291 289 290 290 291 290 288 287 287 285 282 282 282 281 281 280 279 277 275 273 273 273 272 271
282 285 285 277 278 278 285 281 281 286 281 286 288 285 282 282 283 288 284 286 285 286 287 286 287 286 286 285 283 282 282 281 281 282 281 280 278 275 273 273 272 272 271 271
279 280 281 279 279 281 285 280 281 279 284 284 287 286 282 282 287 285 284 283 285 285 285 284 284 283 283 281 281 281 281 280 282 282 279 277 275 273 273 272 271 270 269 269
280 279 279 279 278 277 281 278 280 285 281 283 282 282 282 282 281 282 282 282 282 282 282 283 282 281 282 281 280 280 279 282 279 278 276 274 272 272 270 268 268 267 267 266
279 284 281 283 282 279 282 282 283 284 285 282 282 282 283 281 280 281 281 281 281 282 281 281 281 280 280 280 280 280 281 277 275 274 272 270 269 269 268 267 267 267 267 267
278 279 279 281 278 278 280 281 282 282 282 282 283 282 282 281 281 280 281 281 280 281 280 280 278 278 279 279 278 280 276 274 272 272 270 268 267 267 266 268 268 268 268 268
279 278 276 275 276 278 280 281 282 282 282 281 281 281 282 281 280 280 280 280 281 281 279 278 278 278 279 279 278 277 274 272 272 271 269 269 268 267 268 268 269 268 269 269
278 276 276 277 280 281 281 283 283 282 281 282 281 279 280 281 281 280 280 280 280 279 278 277 277 277 278 276 275 271 270 270 271 270 269 269 269 268 268 268 268 270 271 271
Wind_Speed
2 8 13 17 16 4 1 4 8 3 1 3 11 13 12 6 5 7 6 6 6 6 5 6 7 7 7 8 9 9 9 8 6 7 8 9 10 9 10 10 14 14 13 13
5 14 14 2 8 8 6 8 13 4 3 5 9 14 15 10 7 7 9 9 9 8 7 7 8 8 8 9 9 10 11 10 8 7 7 8 8 9 9 9 12 14 14 14
13 2 7 9 9 11 11 14 12 9 2 4 6 15 19 6 6 7 8 10 10 12 11 9 8 8 8 9 8 9 11 12 11 12 10 10 10 9 9 9 10 12 14 14
9 4 7 11 12 13 15 13 9 7 5 10 3 9 4 8 10 11 12 13 13 12 9 9 10 9 8 7 7 8 9 11 10 10 10 11 10 10 8 8 8 10 12 13
6 10 11 11 9 12 5 5 10 8 11 6 8 9 3 3 11 15 15 14 13 11 10 10 9 7 6 5 6 8 11 11 11 12 11 11 13 9 8 7 10 10 10 11
4 2 5 5 3 4 13 8 5 2 3 10 16 14 6 8 9 13 16 16 16 14 12 9 7 6 6 5 6 8 10 11 10 12 13 14 14 11 9 8 7 6 6 7
4 10 4 4 6 3 6 11 4 6 7 8 2 12 11 8 8 9 23 21 19 16 14 13 12 9 7 7 7 7 10 11 10 13 12 12 12 12 11 8 6 7 6 6
11 8 16 13 18 10 15 18 7 8 7 3 2 10 6 1 4 5 14 19 19 18 15 14 14 11 10 9 8 9 10 11 10 12 13 11 10 7 7 7 7 6 6 6
10 7 3 3 3 13 9 12 3 5 1 3 6 4 6 4 5 5 12 17 19 19 17 17 15 13 12 11 11 11 11 11 10 11 10 10 9 9 9 8 7 6 6 5
4 5 2 3 4 1 6 12 6 5 6 7 5 6 9 9 13 11 14 19 19 18 18 16 14 14 12 12 11 10 10 11 10 10 9 8 9 8 8 7 7 7 6 5
6 4 4 5 13 18 8 8 6 3 4 4 3 6 5 11 15 18 17 19 21 21 20 17 15 14 13 12 12 11 10 11 10 9 9 10 8 9 7 7 6 6 6 4
10 3 7 12 1 2 11 11 15 8 7 5 3 6 5 4 7 12 15 17 19 19 18 18 16 16 15 14 13 13 12 11 11 10 10 10 9 9 8 7 6 5 5 4
13 4 4 4 4 2 10 11 11 8 2 12 8 5 3 3 5 8 12 16 17 19 20 17 17 16 15 15 14 14 14 13 12 12 12 11 10 10 9 8 7 5 4 4
15 9 14 17 5 11 13 16 17 17 12 12 20 7 8 9 10 11 12 14 18 19 19 18 16 16 15 14 14 14 14 14 13 13 12 13 12 11 9 8 7 5 4 4
13 14 22 26 14 8 6 18 22 26 31 18 19 18 16 17 16 16 16 14 17 19 20 20 17 16 15 15 15 14 14 15 14 14 14 14 12 10 9 8 6 5 4 3
4 12 17 19 16 12 11 15 27 29 27 25 14 15 8 14 7 10 14 16 18 19 18 16 15 14 15 16 15 14 15 14 14 15 15 12 10 9 8 7 7 6 5 5
12 12 8 20 20 3 8 32 20 21 21 23 22 14 7 7 12 13 14 16 18 17 17 16 14 13 12 14 13 15 14 13 13 12 9 9 9 9 9 8 7 7 6 4
7 11 5 3 7 12 7 1 16 17 11 11 1 4 10 6 5 4 8 13 12 14 13 10 9 10 9 9 12 11 11 11 11 11 10 9 10 10 10 9 8 6 5 5
2 8 4 6 9 8 1 5 9 13 11 10 12 5 6 5 5 4 6 6 10 11 9 7 8 7 8 10 10 9 9 9 10 11 12 11 11 10 11 9 8 6 5 6
2 3 8 4 7 12 1 6 3 3 6 7 10 9 9 7 6 7 10 8 7 7 6 7 7 6 7 7 8 9 8 9 11 12 12 11 11 11 10 9 8 5 5 6
5 3 12 7 6 5 2 5 3 8 4 4 8 9 13 8 4 4 10 7 5 5 6 4 6 7 8 7 8 8 7 10 11 7 8 9 10 9 9 8 6 6 6 5
11 10 6 4 5 11 7 6 8 3 3 4 5 8 11 5 7 8 8 7 7 6 5 7 6 8 6 7 8 7 9 10 7 8 9 9 9 8 7 7 6 6 6 6
6 4 6 9 4 2 11 3 3 2 6 5 7 7 8 9 8 9 7 6 6 7 5 4 6 5 5 6 9 10 11 7 8 8 8 8 8 7 7 8 7 6 6 6
5 2 1 2 2 2 10 3 1 3 4 4 3 5 8 10 8 9 7 7 6 5 5 4 5 6 8 8 9 11 5 7 8 8 8 8 8 8 7 6 6 6 7 6
1 7 6 1 1 3 3 5 6 6 3 5 4 6 9 7 6 7 6 5 5 5 4 3 6 8 11 6 8 6 6 8 7 7 7 8 7 8 8 8 7 7 7 7
6 7 5 4 8 4 10 16 12 8 9 7 7 4 4 7 8 7 7 6 5 6 4 5 7 7 6 4 4 5 6 8 9 8 7 7 7 7 6 6 6 14 15 15
Wind_Direction
141 206 214 213 215 239 171 224 249 177 149 255 245 258 203 196 191 184 170 156 131 96 71 59 57 61 79 69 74 69 74 73 93 89 85 73 68 64 60 54 48 44 40 40
161 229 229 121 192 200 219 243 248 266 196 229 252 254 257 199 214 205 179 166 148 136 116 85 68 66 72 78 81 77 72 68 74 83 90 84 86 69 68 62 55 50 49 50
208 160 183 172 169 195 224 227 237 258 140 218 277 260 244 196 193 180 179 163 159 154 140 122 99 82 80 74 78 96 97 92 87 97 105 108 106 91 74 58 56 50 55 52
239 157 153 186 210 201 235 218 235 235 237 262 225 281 237 205 203 197 182 181 169 163 148 136 127 106 84 73 80 89 97 102 104 118 113 102 98 98 81 77 69 62 53 57
199 179 189 202 209 187 246 147 210 224 239 270 203 263 222 178 224 204 192 185 175 168 160 147 131 111 99 100 93 90 93 87 90 95 99 102 102 103 105 97 87 75 66 59
278 48 216 212 94 179 134 100 78 106 208 249 230 218 207 202 216 176 185 187 178 171 166 153 140 137 120 104 100 100 97 93 96 99 102 108 117 120 118 113 98 83 71 61
208 216 180 185 136 87 185 164 196 223 209 248 135 210 246 210 172 185 184 183 180 175 174 168 166 166 153 144 128 118 112 107 109 106 104 107 111 115 115 115 110 106 85 67
200 224 189 191 216 181 196 189 196 216 204 199 141 227 241 357 115 131 184 176 172 177 178 179 176 174 170 167 156 141 135 127 131 122 119 120 116 107 99 97 96 90 88 77
191 242 176 195 139 172 177 213 177 105 171 259 202 237 233 166 183 165 166 174 180 182 183 184 181 179 175 178 174 160 153 145 142 129 130 123 118 118 116 114 113 107 107 104
200 245 252 141 139 220 204 145 174 217 216 231 201 247 225 201 202 177 181 190 187 185 187 186 185 181 181 182 177 170 164 160 147 141 135 128 127 124 125 129 125 123 123 125
143 223 132 150 209 189 166 187 213 225 220 227 255 230 218 196 188 187 193 193 189 188 188 187 187 185 186 181 179 175 177 166 160 156 145 146 145 141 143 145 143 139 135 126
191 128 198 205 55 304 235 218 195 206 186 241 306 249 160 161 175 192 190 189 192 192 190 190 188 187 186 186 181 181 184 180 175 168 166 166 157 163 164 158 149 150 141 122
167 186 228 247 204 184 220 201 224 231 54 206 195 219 165 170 219 203 190 184 188 190 192 193 193 192 191 191 187 187 191 188 180 178 179 176 178 180 175 168 162 152 146 126
161 166 205 227 229 154 204 205 201 203 228 219 232 230 197 201 202 198 202 192 189 191 194 196 197 199 199 194 191 192 192 192 185 187 188 190 190 190 181 170 162 162 160 146
185 215 216 237 250 213 221 203 198 209 221 213 242 226 197 191 196 195 198 188 185 194 197 199 199 200 197 198 197 196 199 192 188 191 196 201 194 186 177 164 165 161 173 175
223 238 220 239 224 224 235 229 207 213 222 235 241 231 193 193 161 179 188 182 194 198 198 197 199 198 201 202 202 197 201 195 192 197 204 201 188 176 175 170 177 180 187 196
181 210 182 234 224 183 264 231 214 217 222 221 220 236 137 170 193 197 187 190 198 194 190 188 191 200 203 204 198 199 195 192 191 194 195 182 176 182 186 181 186 197 201 202
176 200 197 227 118 219 272 348 211 212 197 212 228 165 166 177 182 163 185 191 187 188 181 185 195 194 195 193 198 197 192 185 186 197 194 183 184 191 186 188 199 199 202 221
160 170 161 194 209 318 227 194 174 185 229 193 214 144 134 106 109 204 192 184 188 181 179 186 185 183 179 192 190 175 168 173 185 201 200 191 189 187 189 196 197 199 209 224
212 256 213 150 215 225 226 167 183 158 246 191 177 146 149 150 186 217 175 170 157 155 162 180 174 170 179 177 157 162 178 178 203 204 204 189 183 185 186 191 189 193 212 230
158 175 219 190 219 273 203 150 180 173 237 133 161 157 159 188 220 125 150 162 155 163 174 149 172 185 196 155 156 186 168 202 213 185 169 175 182 177 179 175 183 193 212 231
173 168 187 156 222 247 139 100 180 170 11 128 142 167 178 135 144 144 147 149 162 178 178 193 185 208 196 163 169 185 195 216 159 168 174 177 167 168 168 172 182 202 214 228
211 211 183 198 185 108 174 64 159 182 154 189 161 168 158 146 171 162 168 165 177 194 204 195 204 214 186 179 189 194 219 160 155 164 171 164 162 170 168 181 196 209 214 234
227 159 61 176 113 154 182 48 117 208 190 151 158 136 154 170 172 176 160 171 178 191 209 187 186 222 223 203 202 225 135 147 157 173 171 166 175 181 184 197 207 216 221 228
141 140 135 6 127 114 201 223 201 201 166 139 137 158 182 154 164 171 185 190 197 211 202 193 210 227 237 189 202 193 165 153 175 176 175 181 190 194 196 213 215 222 231 231
188 152 172 191 182 163 198 209 197 194 197 187 170 170 183 173 193 180 204 203 195 209 190 208 221 228 234 199 201 174 168 168 168 179 180 189 193 195 207 214 228 235 237 233